Back to catalog

STARLINK-5556

AliveCommunicationsVLEO
NORAD 55385·PAYLOAD·🇺🇸 United States

Launched Jan 26, 2023 from Cape Canaveral Space Force Station

Loading…

Next Passes (next 24 hours)

TLE

FreshSource: CelesTrak SupGP

Epoch: Sep 15, 2026, 01:38 UTC

1 55385C 23013BG  26258.06854167  .00022529  00000+0  81616-3 0  2587
2 55385  43.0036 328.7875 0002120 273.5176  98.7597 15.27559766    19

Track STARLINK-5556 in real time with AllMySat

Download on the App Store